TimePST,TemperatureF,Dew PointF,Humidity,Sea Level PressureIn,VisibilityMPH,Wind Direction,Wind SpeedMPH,Gust SpeedMPH,PrecipitationIn,Events,Conditions,WindDirDegrees,DateUTC
12:56 AM,33.1,30.9,92,30.44,10.0,SSW,5.8,-,N/A,,Clear,200,2012-02-23 08:56:00
1:56 AM,34.0,32.0,92,30.45,10.0,South,3.5,-,N/A,,Clear,190,2012-02-23 09:56:00
2:56 AM,33.1,32.0,96,30.45,10.0,SE,3.5,-,N/A,,Clear,140,2012-02-23 10:56:00
3:56 AM,32.0,30.9,96,30.45,10.0,SE,5.8,-,N/A,,Overcast,130,2012-02-23 11:56:00
4:56 AM,33.1,32.0,96,30.46,10.0,SSE,3.5,-,N/A,,Overcast,150,2012-02-23 12:56:00
5:56 AM,35.1,33.1,92,30.46,10.0,SSE,6.9,-,N/A,,Mostly Cloudy,150,2012-02-23 13:56:00
6:56 AM,34.0,33.1,96,30.46,10.0,South,3.5,-,N/A,,Mostly Cloudy,190,2012-02-23 14:56:00
7:56 AM,34.0,32.0,92,30.48,10.0,SSE,4.6,-,N/A,,Mostly Cloudy,160,2012-02-23 15:56:00
8:56 AM,39.0,36.0,89,30.48,10.0,SSE,5.8,-,N/A,,Mostly Cloudy,150,2012-02-23 16:56:00
9:56 AM,43.0,37.0,80,30.50,10.0,South,6.9,-,N/A,,Mostly Cloudy,190,2012-02-23 17:56:00
10:56 AM,46.0,34.0,63,30.48,10.0,SW,5.8,-,N/A,,Mostly Cloudy,230,2012-02-23 18:56:00
11:56 AM,46.9,30.9,54,30.47,10.0,WSW,3.5,-,N/A,,Mostly Cloudy,240,2012-02-23 19:56:00
12:56 PM,48.0,30.9,52,30.46,10.0,SSW,4.6,-,N/A,,Mostly Cloudy,200,2012-02-23 20:56:00
1:56 PM,48.9,28.0,44,30.43,10.0,Calm,Calm,-,N/A,,Mostly Cloudy,0,2012-02-23 21:56:00
2:56 PM,48.9,28.9,46,30.43,10.0,Calm,Calm,-,N/A,,Mostly Cloudy,0,2012-02-23 22:56:00
3:56 PM,50.0,30.0,46,30.41,10.0,NNE,3.5,-,N/A,,Scattered Clouds,20,2012-02-23 23:56:00
4:56 PM,48.9,30.9,50,30.38,10.0,West,4.6,-,N/A,,Partly Cloudy,260,2012-02-24 00:56:00
5:56 PM,45.0,33.1,63,30.37,10.0,West,5.8,-,N/A,,Clear,280,2012-02-24 01:56:00
6:56 PM,43.0,33.1,68,30.37,10.0,Calm,Calm,-,N/A,,Partly Cloudy,0,2012-02-24 02:56:00
7:56 PM,39.0,33.1,79,30.37,10.0,Calm,Calm,-,N/A,,Partly Cloudy,0,2012-02-24 03:56:00
8:56 PM,37.9,34.0,86,30.36,10.0,Calm,Calm,-,N/A,,Clear,0,2012-02-24 04:56:00
9:56 PM,37.0,34.0,89,30.35,10.0,Calm,Calm,-,N/A,,Overcast,0,2012-02-24 05:56:00
10:56 PM,37.9,34.0,86,30.34,10.0,SSE,3.5,-,N/A,,Overcast,150,2012-02-24 06:56:00
11:56 PM,39.0,34.0,82,30.32,10.0,SSE,5.8,-,N/A,,Overcast,150,2012-02-24 07:56:00